DW8427 Weather Reports


time (UTC)temp
F
wind
direction
speed
knots
gust
knots
rain 1hr
in
rain 24hr
in
rain mn
in
humidity
%
barometer
mb
20260904211544 77 122 0.0 4.3 0.00 0.01 0.01 48 1013.0
20260904210040 75 93 0.9 6.1 0.00 0.01 0.01 49 1013.0
20260904204538 75 148 0.0 7.0 0.00 0.01 0.01 49 1013.0
20260904203037 75 73 0.0 3.5 0.00 0.01 0.01 53 1013.0
20260904201533 73 59 0.9 5.2 0.00 0.01 0.01 54 1013.2
20260904200031 72 83 1.7 7.0 0.00 0.01 0.01 55 1013.3
20260904194533 71 227 0.0 1.7 0.00 0.01 0.01 57 1013.5
20260904193029 71 181 3.5 8.7 0.00 0.01 0.01 57 1013.6
20260904191528 70 125 1.7 7.8 0.00 0.01 0.01 57 1013.7
20260904190025 69 99 3.5 7.8 0.00 0.01 0.01 60 1013.8
20260904184526 68 95 0.0 7.0 0.00 0.01 0.01 63 1014.1
20260904183025 68 129 1.7 7.8 0.00 0.01 0.01 63 1014.1
20260904181524 67 145 5.2 9.6 0.00 0.01 0.01 65 1014.1
20260904180038 67 116 3.5 7.8 0.00 0.01 0.01 66 1014.2
20260904174516 66 92 0.9 8.7 0.00 0.01 0.01 69 1014.2
20260904173020 66 145 4.3 7.8 0.00 0.01 0.01 68 1014.1
20260904171514 65 115 4.3 7.0 0.00 0.01 0.01 71 1013.9
20260904170010 64 128 1.7 7.8 0.00 0.01 0.01 76 1013.9
20260904164508 63 127 3.5 7.8 0.00 0.01 0.01 78 1013.9
20260904163005 62 167 3.5 7.0 0.00 0.01 0.01 81 1013.7
20260904161504 61 141 0.9 6.1 0.00 0.01 0.01 84 1013.5
20260904160004 61 117 0.9 3.5 0.00 0.01 0.01 84 1013.5
20260904154601 61 110 1.7 4.3 0.00 0.01 0.01 85 1013.5
20260904153109 61 92 1.7 5.2 0.00 0.01 0.01 85 1013.4
20260904151558 61 142 2.6 6.1 0.00 0.01 0.01 86 1013.4
20260904150100 60 133 0.9 5.2 0.00 0.01 0.01 88 1013.4
20260904144556 60 105 0.9 4.3 0.00 0.01 0.01 88 1013.1
20260904143057 60 129 2.6 4.3 0.00 0.01 0.01 88 1012.9
20260904141550 60 103 1.7 5.2 0.00 0.01 0.01 88 1012.7
20260904140047 60 101 1.7 5.2 0.01 0.01 0.01 88 1012.3
20260904134551 60 113 0.0 3.5 0.01 0.01 0.01 88 1012.2
20260904133057 60 133 2.6 5.2 0.01 0.01 0.01 88 1012.1
20260904131542 60 122 0.9 3.5 0.01 0.01 0.01 88 1012.0
20260904130040 61 131 2.6 5.2 0.00 0.00 0.00 88 1011.9
20260904124539 61 146 2.6 5.2 0.00 0.00 0.00 88 1012.0
20260904123037 60 122 1.7 6.1 0.00 0.00 0.00 88 1011.8
20260904121536 60 111 3.5 6.1 0.00 0.00 0.00 88 1011.7
20260904120050 61 156 0.9 7.0 0.00 0.00 0.00 88 1011.7
20260904114532 61 129 1.7 4.3 0.00 0.00 0.00 88 1011.5
20260904113034 61 114 1.7 4.3 0.00 0.00 0.00 87 1011.6
20260904111530 61 120 0.0 1.7 0.00 0.00 0.00 86 1011.6
20260904110028 61 118 0.9 2.6 0.00 0.00 0.00 85 1011.4
20260904104542 62 147 0.0 2.6 0.00 0.00 0.00 85 1011.3
20260904103027 61 109 0.9 5.2 0.00 0.00 0.00 86 1011.2
20260904101535 62 70 0.0 2.6 0.00 0.00 0.00 87 1011.2
20260904100024 62 110 0.0 1.7 0.00 0.00 0.00 87 1011.2
20260904094530 62 110 0.0 0.9 0.00 0.00 0.00 86 1011.2
20260904093026 62 226 0.0 2.6 0.00 0.00 0.00 86 1011.1
20260904091522 62 103 0.0 2.6 0.00 0.00 0.00 86 1011.0
20260904090021 62 80 1.7 7.8 0.00 0.00 0.00 86 1011.1
20260904084519 62 115 1.7 5.2 0.00 0.00 0.00 85 1011.1
20260904083016 63 195 0.0 2.6 0.00 0.00 0.00 83 1011.2
20260904081514 63 112 0.9 3.5 0.00 0.00 0.00 82 1011.2
20260904080011 64 103 0.9 3.5 0.00 0.00 0.00 79 1011.3
20260904074510 65 115 0.0 3.5 0.00 0.00 0.00 80 1011.3
20260904073008 65 94 1.7 5.2 0.00 0.00 0.00 79 1011.2
20260904071509 65 86 1.7 4.3 0.00 0.00 0.00 79 1011.2
20260904070006 65 122 1.7 4.3 0.00 0.00 0.00 77 1011.2
20260904064502 66 122 0.9 6.1 0.00 0.00 0.00 76 1011.1
20260904063002 66 129 1.7 7.0 0.00 0.00 0.00 76 1011.1
20260904061504 66 127 0.0 4.3 0.00 0.00 0.00 76 1011.2
20260904060121 67 135 0.0 3.5 0.00 0.00 0.00 75 1011.1
20260904054603 67 112 0.9 5.2 0.00 0.00 0.00 76 1011.2
20260904053147 67 84 0.0 5.2 0.00 0.00 0.00 75 1011.3
20260904051610 67 153 0.9 5.2 0.00 0.00 0.00 75 1011.3
20260904050058 67 141 1.7 5.2 0.00 0.00 0.00 75 1011.2
20260904044605 67 144 2.6 5.2 0.00 0.00 0.00 74 1011.2
20260904043104 67 110 0.9 3.5 0.00 0.00 0.00 73 1011.3
20260904041601 68 267 0.0 0.0 0.00 0.00 0.00 73 1011.4
20260904040056 68 176 0.0 0.0 0.00 0.00 0.00 72 1011.3
20260904034555 68 128 0.0 0.9 0.00 0.00 0.00 72 1011.2
20260904033105 68 109 0.0 0.0 0.00 0.00 0.00 72 1011.0
20260904031555 68 109 0.0 0.0 0.00 0.00 0.00 72 1010.9
20260904030054 69 109 0.0 0.0 0.00 0.00 0.00 71 1010.8
20260904024606 69 134 0.0 0.0 0.00 0.00 0.00 71 1011.0
20260904023101 69 136 0.0 0.9 0.00 0.00 0.00 71 1011.0
20260904021551 69 268 0.0 1.7 0.00 0.00 0.00 70 1011.0
20260904020050 69 120 0.0 0.9 0.00 0.00 0.00 70 1011.1
20260904014603 70 327 0.0 2.6 0.00 0.00 0.00 68 1011.1
20260904013049 70 165 0.0 1.7 0.00 0.00 0.00 67 1011.1
20260904011548 71 288 0.9 6.1 0.00 0.00 0.00 67 1011.3
20260904010049 71 319 0.0 3.5 0.00 0.00 0.00 66 1011.3
20260904004546 72 293 0.9 7.8 0.00 0.00 0.00 65 1011.3
20260904003049 73 323 0.0 3.5 0.00 0.00 0.00 64 1011.3
20260904001545 73 137 0.0 1.7 0.00 0.00 0.00 64 1011.2
20260904000108 73 303 0.9 5.2 0.00 0.00 0.00 64 1011.3
20260903234543 73 311 0.0 2.6 0.00 0.00 0.00 64 1011.3
20260903233100 73 252 2.6 7.8 0.00 0.00 0.00 63 1011.4
20260903231540 73 281 0.9 8.7 0.00 0.00 0.00 63 1011.5
20260903230055 75 163 0.0 2.6 0.00 0.00 0.00 59 1011.4
20260903224543 75 131 0.0 4.3 0.00 0.00 0.00 60 1011.5
20260903223058 75 115 0.0 3.5 0.00 0.00 0.00 60 1011.9
20260903221533 75 106 0.9 6.1 0.00 0.00 0.00 59 1012.1
20260903220030 75 11 0.9 4.3 0.00 0.00 0.00 59 1012.4
20260903214528 75 90 2.6 7.8 0.00 0.00 0.00 60 1012.4
20260903213040 74 288 1.7 9.6 0.00 0.00 0.00 60 1012.6